Regional Weather Roundup
Issued by NWS State College, PA

Home | Current Version | Previous Version | Graphics & Text | Print | Product List | Glossary Off
Versions: 1 2 3 4 5 6 7 8 9 10 11 12 13 14 15 16 17 18 19 20 21 22 23 24 25 26 27 28 29 30 31 32 33 34 35 36 37 38 39 40 41 42 43 44 45 46 47 48 49 50

000
ASUS41 KCTP 240603
RWRCTP

REGIONAL WEATHER ROUNDUP
NATIONAL WEATHER SERVICE STATE COLLEGE PA
200 AM EDT SUN JUL 24 2016

Note: "fair" indicates few or no clouds below 12,000 feet with no
significant weather and/or obstructions to visibility.

* = STATION THAT DOES NOT REPORT PRECIPITATION /E.G. RAIN...SNOW...ETC/
    THUNDER OR FOG.

PAZ002>004-007>009-013>016-020>023-029>032-240700-
WESTERN PENNSYLVANIA

CITY           SKY/WX    TMP DP  RH WIND       PRES   REMARKS
ERIE           PTCLDY    69  62  78 CALM      30.01S
MEADVILLE      MOCLDY    70  57  63 CALM      30.04F
FRANKLIN*      MOCLDY    64  57  77 CALM      30.07S
NEW CASTLE     FAIR      64  61  90 CALM      30.04S
BEAVER COUNTY  NOT AVBL
BUTLER*        CLEAR     66  61  82 CALM      30.07S
PITTSBURGH INT MOCLDY    73  67  81 CALM      30.03F
PITTSBURGH     CLOUDY    72  69  90 CALM      30.03F FOG
INDIANA*       PTCLDY    68  66  94 CALM      30.08S
LATROBE        CLEAR     68  68 100 CALM      30.04F
WASHINGTON CO*   N/A     68  66  94 CALM      30.03F VSB 1/2
$$

PAZ004>006-010>012-017>019-024>028-033>037-041-042-045-046-049>053-240700-
CENTRAL PENNSYLVANIA

CITY           SKY/WX    TMP DP  RH WIND       PRES   REMARKS
BRADFORD       PTCLDY    59  56  89 CALM      30.07F
DUBOIS         CLOUDY    65  57  75 CALM      30.05F
CLEARFIELD     CLOUDY    67  56  67 CALM      30.05S
JOHNSTOWN      PTCLDY    73  65  75 CALM      30.09F
ALTOONA        PTCLDY    68  62  81 S3        30.05S
STATE COLLEGE  CLOUDY    70  56  61 CALM      30.02S
WILLIAMSPORT   CLEAR     68  59  73 CALM      29.98R
SELINSGROVE    CLOUDY    64  62  93 CALM      29.98R
FT INDIANTOWN  CLEAR     69  58  67 NW2       29.97R
CAPITAL CITY   PTCLDY    72  61  68 W6        29.96R
HARRISBURG     MOCLDY    74  71  91 CALM      29.95R
YORK           PTCLDY    67  65  93 W3        29.97R
$$

PAZ038>040-043-044-047-048-054-055-060>062-067>071-240700-
EASTERN PENNSYLVANIA

CITY           SKY/WX    TMP DP  RH WIND       PRES   REMARKS
SCRANTON       CLEAR     71  58  63 E7        29.99R
MOUNT POCONO   CLEAR     69  32  25 NW6       30.03S
ALLENTOWN      CLEAR     69  59  70 NW3       29.96R
QUAKERTOWN*    CLEAR     68  64  88 CALM      29.97S
READING        CLEAR     70  66  87 N3        29.95R
LANCASTER      CLEAR     68  67  96 CALM      29.96R
COATESVILLE    CLEAR     75  66  73 CALM      29.98S
POTTSTOWN      CLEAR     71  67  87 CALM      29.97R
BLUE BELL      CLEAR     68  64  88 CALM      29.94R
DOYLESTOWN     CLEAR     71  66  84 CALM      29.95R
WILLOW GROVE   NOT AVBL
NORTH PHILA    CLEAR     75  67  76 N3        29.95R
PHILADELPHIA   PTCLDY    77  68  73 N5        29.93S
$$




USA.gov is the U.S. government's official web portal to all federal, state and local government web resources and services.